Powrót do katalogu

NOAA 16 DEB

AktywnyPO
NORAD 41146·DEBRIS·🇺🇸 United States

Wystrzelony Sep 21, 2000 z Vandenberg Space Force Base

Loading…

Następne Przeloty (najbliższe 24 godziny)

TLE

ŚwieżeSource: Space-Track

Epoka: Sep 14, 2026, 14:04 UTC

1 41146U 00055CD  26257.58635164  .00011652  00000-0  24829-2 0  9998
2 41146  98.8289  30.9048 0018460 181.7373 178.3763 14.59006381559512

Śledź NOAA 16 DEB w czasie rzeczywistym z AllMySat

Download on the App Store